Hourly Data Report for October 28, 2016

All times are specified in Local Standard Time (LST). Add 1 hour to adjust for Daylight Saving Time where and when it is observed.

KAMLOOPS A
BRITISH COLUMBIA

50°42'09.000" N
120°26'55.000" W
345.30 m
1163781
71887
YKA

Download Data

Hourly Data (October 2016)
Hourly Data Report for October 28, 2016
Temp Definition
°C
Dew Point Temp Definition
°C
Rel Hum Definition
%
Wind Dir Definition
10's deg

Wind Spd Definition
km/h
Visibility Definition
km
Stn Press Definition
kPa
Hmdx Definition


Wind Chill Definition


Weather Definition


TIME
00:00 Legend Double Dagger 8.5 7.6 94 6 5 24.1 97.11     LegendNANA
01:00 Legend Double Dagger 8.3 7.2 93 9 8 24.1 97.17     Cloudy
02:00 Legend Double Dagger 7.3 5.9 91 9 9 24.1 97.20     LegendNANA
03:00 Legend Double Dagger 7.1 6.1 93 8 8 24.1 97.27     LegendNANA
04:00 Legend Double Dagger 6.6 5.6 93 9 7 24.1 97.31     Cloudy
05:00 Legend Double Dagger 6.0 4.5 90 8 7 24.1 97.36     LegendNANA
06:00 Legend Double Dagger 6.0 4.7 91 7 9 32.2 97.43     LegendNANA
07:00 Legend Double Dagger 5.4 4.4 93 7 13 40.2 97.50     Mostly Cloudy
08:00 Legend Double Dagger 6.5 5.1 91 7 12 48.3 97.54     LegendNANA
09:00 Legend Double Dagger 6.6 5.1 90 11 11 40.2 97.63     LegendNANA
10:00 Legend Double Dagger 8.0 5.5 84 11 10 48.3 97.69     Mainly Clear
11:00 Legend Double Dagger 8.8 5.7 81 11 14 64.4 97.68     LegendNANA
12:00 Legend Double Dagger 10.6 6.2 74 9 12 48.3 97.61     LegendNANA
13:00 Legend Double Dagger 11.1 5.9 70 11 5 64.4 97.56     Mainly Clear
14:00 Legend Double Dagger 12.3 6.2 66 13 5 64.4 97.50     LegendNANA
15:00 Legend Double Dagger 12.1 6.2 67 31 8 64.4 97.47     LegendNANA
16:00 Legend Double Dagger 10.9 6.3 73 24 7 64.4 97.43     Mainly Clear
17:00 Legend Double Dagger 9.7 6.3 79 9 3 64.4 97.45     LegendNANA
18:00 Legend Double Dagger 10.4 6.8 78 12 9 64.4 97.56     LegendNANA
19:00 Legend Double Dagger 9.8 6.2 78 9 18 64.4 97.63     Mainly Clear
20:00 Legend Double Dagger 7.9 5.4 84 9 16 64.4 97.67     LegendNANA
21:00 Legend Double Dagger 7.2 5.2 87 9 18 64.4 97.70     LegendNANA
22:00 Legend Double Dagger 6.8 4.8 87 8 16 64.4 97.69     Clear
23:00 Legend Double Dagger 6.6 4.9 89 8 19 64.4 97.67     LegendNANA

Notes on Data Quality.

Legend

  • E = Estimated
  • M = Missing
  • NA = Not Available
  • ‡ = Partner data that is not subject to review by the National Climate Archives
Date modified: